SL-6 R/B(2)

Last updated on Sun Jul 06 2025 00:02:13 GMT+0000 (Coordinated Universal Time)

1 20666U 90055D 25186.57462708 .00001527 00000+0 13010-3 0 9992 2 20666 62.7838 13.1591 0023651 196.1864 163.8482 15.02091723901055
UTC large
Height (km)
Speed (km/s)
/
Latitude / Longitude
Inclination (degrees)
Orbital Period (minutes)
Azimuth
Elevation
Range (km)
Doppler Factor

Next 0 passes for location: London (51.5072 / 0.1276)

Sorry there are no passes over London.